STARLINK-4691, 53588

Orbit data source: Space-Track

STARLINK-4691, 53588 is a payload satellite owned by SpaceX/Seattle (US) in LEO that was launched on Sun, 28 Aug 2022 UTC via an FALCON 9 launch vehicle from the Air Force Eastern Test Range (AFETR). Payload-class satellites include a variety of spacecraft equipped with specific instruments for various scientific and technological missions. These include communications satellites like Starlink; space stations such as the ISS; scientific satellites like the Hubble; Earth observation satellites from companies like Planet Labs, Umbra, and HawkEye 360; GPS; miniature CubeSats for education and research; and military/defense satellites.

Loading next visibility...
Identifier
53588, 2022-104A
Orbit
LEO
Country
Flag of USUS
Related business
Manufacturer
SpaceX/Seattle
Mission
Operational Commercial Communications
Bus & Motor
STARLINK, Unknown motor
Mass
300 kg wet, ~290 kg dry
Launch date (UTC)
2022-08-28 (3 years ago)
Launch vehicle
FALCON 9
Launch site
Air Force Eastern Test Range (AFETR)
Object type
Payload
Rocket body
Debris
Shape & HBR
Box + 1 Pan, 10.1 m
Radar Cross Section
13.562 m², Large (>1 m²)

Expand to show TLE details & history
Last TLE update: 11 hours ago

TLE from 11 hours ago
0 STARLINK-4691
1 53588U 22104A   26036.97606190  .00002939  00000-0  20274-3 0  9994
2 53588  53.2193  26.7378 0001551  99.2975 260.8193 15.08833286191307
Epoch: 2026-02-05T23:25Z
TLE epoch observation values (Epoch: 2026-02-05T23:25:31.748Z)
Latitude
0.00002°
Longitude
-100.76503°
Altitude
540.833 km
Speed
7.593 km/s
True Right ascension
01h 46m 57s
True Declination
0° 00' 00"
Sunlit
Object was in daylight at epoch
Visualization orbit readout
Latitude
Unknown
Longitude
Unknown
Altitude
Unknown
Speed
Unknown
Apparent Right ascension
Unknown
Apparent Declination
Unknown
Sunlit
N/A
Visualization observer readout
Local Sidereal Time
12:02:03
Azimuth
Unknown
Elevation
Unknown
Doppler factor
Unknown
Orbital elements
Apogee altitude
541.082 km
Perigee altitude
538.936 km
Semi-major axis
6,918.146 km
Eccentricity
0.00016
Inclination
53.2193°
RAAN
26.7378°
Arg. of periapsis
99.2975°
True anomaly
260.80176°
Mean anomaly
260.8193°
Eccentric anomaly
260.81053°
Mean motion
3.77189 °/min
Orbital period
95.44 mins
BSTAR
0.00020274
Loading maneuver chart data...
Computing Atmospheric mass density...
Loading historical data...
Loading historical data...
Loading historical data...
Loading historical data...
Loading historical data...
Loading historical data...
Loading historical data...

Documentation

Showing up to 5 results
|